Year,Month,Day,Hour,Minute,Value (Times are PST for windspeed in km/hr)
2012,01,21,00,00,6.80
2012,01,21,00,01,8.00
2012,01,21,00,02,5.90
2012,01,21,00,03,3.60
2012,01,21,00,04,5.10
2012,01,21,00,05,8.10
2012,01,21,00,06,9.90
2012,01,21,00,07,6.10
2012,01,21,00,08,3.90
2012,01,21,00,09,3.50
2012,01,21,00,10,2.60
2012,01,21,00,11,3.50
2012,01,21,00,12,6.60
2012,01,21,00,13,4.30
2012,01,21,00,14,2.30
2012,01,21,00,15,8.20
2012,01,21,00,16,5.60
2012,01,21,00,17,3.00
2012,01,21,00,18,0.50
2012,01,21,00,19,0.10
2012,01,21,00,20,0.50
2012,01,21,00,21,0.00
2012,01,21,00,22,1.80
2012,01,21,00,23,1.10
2012,01,21,00,24,1.20
2012,01,21,00,25,0.40
2012,01,21,00,26,0.30
2012,01,21,00,27,0.70
2012,01,21,00,28,0.90
2012,01,21,00,29,0.20
2012,01,21,00,30,0.10
2012,01,21,00,31,0.50
2012,01,21,00,32,0.70
2012,01,21,00,33,0.50
2012,01,21,00,34,1.90
2012,01,21,00,35,0.10
2012,01,21,00,36,1.90
2012,01,21,00,37,4.60
2012,01,21,00,38,4.00
2012,01,21,00,39,5.50
2012,01,21,00,40,4.20
2012,01,21,00,41,5.90
2012,01,21,00,42,7.60
2012,01,21,00,43,7.00
2012,01,21,00,44,7.20
2012,01,21,00,45,4.00
2012,01,21,00,46,5.50
2012,01,21,00,47,2.20
2012,01,21,00,48,4.30
2012,01,21,00,49,4.30
2012,01,21,00,50,4.00
2012,01,21,00,51,3.00
2012,01,21,00,52,5.80
2012,01,21,00,53,6.70
2012,01,21,00,54,3.70
2012,01,21,00,55,3.20
2012,01,21,00,56,5.50
2012,01,21,00,57,3.20
2012,01,21,00,58,1.90
2012,01,21,00,59,2.80
2012,01,21,01,00,6.20
2012,01,21,01,01,6.00
2012,01,21,01,02,8.60
2012,01,21,01,03,6.30
2012,01,21,01,04,5.40
2012,01,21,01,05,5.70
2012,01,21,01,06,4.30
2012,01,21,01,07,5.70
2012,01,21,01,08,4.30
2012,01,21,01,09,4.10
2012,01,21,01,10,6.50
2012,01,21,01,11,4.70
2012,01,21,01,12,3.90
2012,01,21,01,13,6.40
2012,01,21,01,14,4.30
2012,01,21,01,15,6.90
2012,01,21,01,16,3.80
2012,01,21,01,17,5.00
2012,01,21,01,18,6.30
2012,01,21,01,19,5.80
2012,01,21,01,20,1.90
2012,01,21,01,21,2.90
2012,01,21,01,22,1.90
2012,01,21,01,23,3.20
2012,01,21,01,24,0.20
2012,01,21,01,25,0.30
2012,01,21,01,26,1.60
2012,01,21,01,27,4.00
2012,01,21,01,28,5.40
2012,01,21,01,29,4.00
2012,01,21,01,30,4.60
2012,01,21,01,31,3.40
2012,01,21,01,32,2.30
2012,01,21,01,33,1.40
2012,01,21,01,34,0.40
2012,01,21,01,35,3.20
2012,01,21,01,36,5.40
2012,01,21,01,37,6.40
2012,01,21,01,38,4.90
2012,01,21,01,39,4.70
2012,01,21,01,40,3.40
2012,01,21,01,41,1.40
2012,01,21,01,42,0.00
2012,01,21,01,43,1.40
2012,01,21,01,44,0.60
2012,01,21,01,45,0.60
2012,01,21,01,46,3.20
2012,01,21,01,47,3.70
2012,01,21,01,48,1.10
2012,01,21,01,49,0.20
2012,01,21,01,50,2.30
2012,01,21,01,51,1.70
2012,01,21,01,52,2.50
2012,01,21,01,53,2.00
2012,01,21,01,54,0.00
2012,01,21,01,55,0.00
2012,01,21,01,56,0.10
2012,01,21,01,57,0.20
2012,01,21,01,58,2.20
2012,01,21,01,59,4.40
2012,01,21,02,00,3.70
2012,01,21,02,01,1.00
2012,01,21,02,02,0.00
2012,01,21,02,03,0.40
2012,01,21,02,04,1.50
2012,01,21,02,05,0.20
2012,01,21,02,06,0.20
2012,01,21,02,07,1.90
2012,01,21,02,08,1.90
2012,01,21,02,09,2.10
2012,01,21,02,10,0.30
2012,01,21,02,11,2.50
2012,01,21,02,12,2.10
2012,01,21,02,13,3.70
2012,01,21,02,14,3.60
2012,01,21,02,15,5.70
2012,01,21,02,16,3.20
2012,01,21,02,17,1.10
2012,01,21,02,18,0.50
2012,01,21,02,19,0.00
2012,01,21,02,20,0.10
2012,01,21,02,21,0.50
2012,01,21,02,22,0.00
2012,01,21,02,23,0.70
2012,01,21,02,24,1.00
2012,01,21,02,25,1.20
2012,01,21,02,26,0.20
2012,01,21,02,27,0.00
2012,01,21,02,28,0.00
2012,01,21,02,29,0.00
2012,01,21,02,30,0.00
2012,01,21,02,31,0.00
2012,01,21,02,32,0.00
2012,01,21,02,33,0.40
2012,01,21,02,34,0.60
2012,01,21,02,35,1.90
2012,01,21,02,36,4.70
2012,01,21,02,37,6.50
2012,01,21,02,38,4.20
2012,01,21,02,39,3.20
2012,01,21,02,40,4.30
2012,01,21,02,41,1.30
2012,01,21,02,42,0.30
2012,01,21,02,43,0.00
2012,01,21,02,44,0.10
2012,01,21,02,45,1.80
2012,01,21,02,46,6.80
2012,01,21,02,47,8.30
2012,01,21,02,48,5.90
2012,01,21,02,49,7.20
2012,01,21,02,50,13.10
2012,01,21,02,51,18.20
2012,01,21,02,52,14.70
2012,01,21,02,53,12.50
2012,01,21,02,54,18.90
2012,01,21,02,55,9.80
2012,01,21,02,56,15.00
2012,01,21,02,57,19.00
2012,01,21,02,58,13.90
2012,01,21,02,59,16.40
2012,01,21,03,00,18.60
2012,01,21,03,01,19.80
2012,01,21,03,02,19.70
2012,01,21,03,03,11.10
2012,01,21,03,04,11.30
2012,01,21,03,05,19.80
2012,01,21,03,06,21.00
2012,01,21,03,07,13.30
2012,01,21,03,08,18.70
2012,01,21,03,09,12.10
2012,01,21,03,10,15.00
2012,01,21,03,11,17.90
2012,01,21,03,12,16.40
2012,01,21,03,13,14.80
2012,01,21,03,14,13.80
2012,01,21,03,15,18.30
2012,01,21,03,16,13.70
2012,01,21,03,17,16.70
2012,01,21,03,18,16.80
2012,01,21,03,19,26.00
2012,01,21,03,20,18.00
2012,01,21,03,21,12.80
2012,01,21,03,22,16.50
2012,01,21,03,23,18.10
2012,01,21,03,24,18.00
2012,01,21,03,25,18.20
2012,01,21,03,26,19.90
2012,01,21,03,27,21.60
2012,01,21,03,28,23.40
2012,01,21,03,29,18.90
2012,01,21,03,30,20.80
2012,01,21,03,31,20.50
2012,01,21,03,32,17.10
2012,01,21,03,33,25.00
2012,01,21,03,34,22.70
2012,01,21,03,35,24.80
2012,01,21,03,36,25.20
2012,01,21,03,37,18.30
2012,01,21,03,38,14.70
2012,01,21,03,39,24.50
2012,01,21,03,40,17.40
2012,01,21,03,41,22.50
2012,01,21,03,42,17.50
2012,01,21,03,43,16.50
2012,01,21,03,44,19.70
2012,01,21,03,45,24.10
2012,01,21,03,46,14.70
2012,01,21,03,47,18.00
2012,01,21,03,48,33.20
2012,01,21,03,49,18.50
2012,01,21,03,50,21.20
2012,01,21,03,51,25.00
2012,01,21,03,52,24.10
2012,01,21,03,53,17.60
2012,01,21,03,54,13.80
2012,01,21,03,55,22.70
2012,01,21,03,56,19.30
2012,01,21,03,57,15.20
2012,01,21,03,58,16.90
2012,01,21,03,59,18.10
2012,01,21,04,00,26.50
2012,01,21,04,01,19.30
2012,01,21,04,02,23.80
2012,01,21,04,03,17.50
2012,01,21,04,04,13.00
2012,01,21,04,05,15.60
2012,01,21,04,06,21.90
2012,01,21,04,07,19.50
2012,01,21,04,08,21.50
2012,01,21,04,09,15.80
2012,01,21,04,10,19.50
2012,01,21,04,11,16.20
2012,01,21,04,12,14.10
2012,01,21,04,13,11.60
2012,01,21,04,14,25.10
2012,01,21,04,15,16.20
2012,01,21,04,16,14.70
2012,01,21,04,17,18.00
2012,01,21,04,18,20.70
2012,01,21,04,19,24.10
2012,01,21,04,20,25.10
2012,01,21,04,21,24.30
2012,01,21,04,22,26.10
2012,01,21,04,23,24.40
2012,01,21,04,24,17.10
2012,01,21,04,25,18.20
2012,01,21,04,26,16.40
2012,01,21,04,27,19.40
2012,01,21,04,28,16.10
2012,01,21,04,29,18.20
2012,01,21,04,30,16.70
2012,01,21,04,31,20.40
2012,01,21,04,32,16.90
2012,01,21,04,33,8.50
2012,01,21,04,34,13.90
2012,01,21,04,35,24.20
2012,01,21,04,36,23.00
2012,01,21,04,37,25.80
2012,01,21,04,38,21.60
2012,01,21,04,39,20.10
2012,01,21,04,40,23.60
2012,01,21,04,41,18.20
2012,01,21,04,42,21.60
2012,01,21,04,43,16.20
2012,01,21,04,44,16.90
2012,01,21,04,45,14.50
2012,01,21,04,46,18.50
2012,01,21,04,47,14.50
2012,01,21,04,48,20.80
2012,01,21,04,49,16.30
2012,01,21,04,50,22.20
2012,01,21,04,51,22.20
2012,01,21,04,52,15.40
2012,01,21,04,53,13.30
2012,01,21,04,54,21.00
2012,01,21,04,55,15.80
2012,01,21,04,56,25.50
2012,01,21,04,57,18.00
2012,01,21,04,58,28.20
2012,01,21,04,59,26.50
2012,01,21,05,00,20.20
2012,01,21,05,01,22.30
2012,01,21,05,02,15.90
2012,01,21,05,03,35.40
2012,01,21,05,04,18.80
2012,01,21,05,05,23.00
2012,01,21,05,06,30.00
2012,01,21,05,07,33.90
2012,01,21,05,08,20.40
2012,01,21,05,09,24.80
2012,01,21,05,10,14.60
2012,01,21,05,11,23.60
2012,01,21,05,12,15.80
2012,01,21,05,13,20.00
2012,01,21,05,14,21.00
2012,01,21,05,15,28.00
2012,01,21,05,16,24.70
2012,01,21,05,17,15.00
2012,01,21,05,18,16.90
2012,01,21,05,19,18.70
2012,01,21,05,20,27.60
2012,01,21,05,21,21.30
2012,01,21,05,22,15.40
2012,01,21,05,23,24.10
2012,01,21,05,24,26.30
2012,01,21,05,25,22.40
2012,01,21,05,26,19.60
2012,01,21,05,27,22.60
2012,01,21,05,28,18.70
2012,01,21,05,29,19.40
2012,01,21,05,30,18.70
2012,01,21,05,31,27.60
2012,01,21,05,32,23.20
2012,01,21,05,33,29.80
2012,01,21,05,34,13.50
2012,01,21,05,35,19.10
2012,01,21,05,36,25.70
2012,01,21,05,37,23.50
2012,01,21,05,38,18.70
2012,01,21,05,39,24.90
2012,01,21,05,40,23.00
2012,01,21,05,41,24.90
2012,01,21,05,42,23.30
2012,01,21,05,43,19.10
2012,01,21,05,44,23.80
2012,01,21,05,45,23.70
2012,01,21,05,46,25.20
2012,01,21,05,47,24.70
2012,01,21,05,48,22.20
2012,01,21,05,49,22.40
2012,01,21,05,50,27.10
2012,01,21,05,51,26.60
2012,01,21,05,52,23.80
2012,01,21,05,53,28.80
2012,01,21,05,54,22.60
2012,01,21,05,55,19.70
2012,01,21,05,56,20.50
2012,01,21,05,57,27.10
2012,01,21,05,58,26.60
2012,01,21,05,59,22.10
2012,01,21,06,00,26.30
2012,01,21,06,01,27.90
2012,01,21,06,02,24.90
2012,01,21,06,03,19.30
2012,01,21,06,04,23.30
2012,01,21,06,05,22.90
2012,01,21,06,06,14.30
2012,01,21,06,07,13.90
2012,01,21,06,08,25.30
2012,01,21,06,09,20.00
2012,01,21,06,10,13.60
2012,01,21,06,11,16.30
2012,01,21,06,12,17.30
2012,01,21,06,13,26.60
2012,01,21,06,14,24.50
2012,01,21,06,15,26.80
2012,01,21,06,16,29.40
2012,01,21,06,17,22.00
2012,01,21,06,18,21.20
2012,01,21,06,19,19.70
2012,01,21,06,20,20.10
2012,01,21,06,21,11.10
2012,01,21,06,22,23.30
2012,01,21,06,23,21.20
2012,01,21,06,24,20.00
2012,01,21,06,25,26.70
2012,01,21,06,26,23.50
2012,01,21,06,27,16.60
2012,01,21,06,28,24.20
2012,01,21,06,29,17.80
2012,01,21,06,30,16.20
2012,01,21,06,31,20.00
2012,01,21,06,32,18.80
2012,01,21,06,33,19.70
2012,01,21,06,34,18.80
2012,01,21,06,35,23.90
2012,01,21,06,36,19.80
2012,01,21,06,37,21.60
2012,01,21,06,38,22.60
2012,01,21,06,39,14.70
2012,01,21,06,40,16.40
2012,01,21,06,41,18.00
2012,01,21,06,42,14.90
2012,01,21,06,43,20.50
2012,01,21,06,44,18.70
2012,01,21,06,45,16.40
2012,01,21,06,46,22.20
2012,01,21,06,47,20.50
2012,01,21,06,48,16.30
2012,01,21,06,49,9.20
2012,01,21,06,50,14.20
2012,01,21,06,51,13.80
2012,01,21,06,52,22.10
2012,01,21,06,53,14.50
2012,01,21,06,54,9.40
2012,01,21,06,55,14.20
2012,01,21,06,56,16.20
2012,01,21,06,57,22.30
2012,01,21,06,58,19.60
2012,01,21,06,59,20.80
2012,01,21,07,00,23.10
2012,01,21,07,01,16.10
2012,01,21,07,02,11.50
2012,01,21,07,03,11.60
2012,01,21,07,04,23.00
2012,01,21,07,05,20.80
2012,01,21,07,06,19.70
2012,01,21,07,07,12.80
2012,01,21,07,08,17.70
2012,01,21,07,09,9.20
2012,01,21,07,10,13.60
2012,01,21,07,11,17.60
2012,01,21,07,12,14.20
2012,01,21,07,13,15.70
2012,01,21,07,14,11.90
2012,01,21,07,15,15.10
2012,01,21,07,16,17.30
2012,01,21,07,17,22.70
2012,01,21,07,18,19.90
2012,01,21,07,19,17.90
2012,01,21,07,20,13.50
2012,01,21,07,21,14.10
2012,01,21,07,22,17.10
2012,01,21,07,23,14.70
2012,01,21,07,24,10.80
2012,01,21,07,25,8.50
2012,01,21,07,26,8.30
2012,01,21,07,27,13.90
2012,01,21,07,28,19.30
2012,01,21,07,29,16.30
2012,01,21,07,30,18.60
2012,01,21,07,31,14.80
2012,01,21,07,32,24.20
2012,01,21,07,33,20.50
2012,01,21,07,34,10.20
2012,01,21,07,35,14.80
2012,01,21,07,36,14.00
2012,01,21,07,37,15.00
2012,01,21,07,38,8.60
2012,01,21,07,39,16.80
2012,01,21,07,40,12.10
2012,01,21,07,41,18.50
2012,01,21,07,42,16.90
2012,01,21,07,43,11.10
2012,01,21,07,44,8.90
2012,01,21,07,45,8.80
2012,01,21,07,46,16.50
2012,01,21,07,47,20.50
2012,01,21,07,48,16.40
2012,01,21,07,49,19.50
2012,01,21,07,50,12.50
2012,01,21,07,51,10.30
2012,01,21,07,52,11.30
2012,01,21,07,53,14.40
2012,01,21,07,54,16.30
2012,01,21,07,55,14.60
2012,01,21,07,56,9.10
2012,01,21,07,57,4.90
2012,01,21,07,58,7.90
2012,01,21,07,59,14.20
2012,01,21,08,00,15.00
2012,01,21,08,01,10.10
2012,01,21,08,02,10.70
2012,01,21,08,03,10.70
2012,01,21,08,04,16.80
2012,01,21,08,05,16.40
2012,01,21,08,06,11.70
2012,01,21,08,07,9.50
2012,01,21,08,08,12.20
2012,01,21,08,09,16.70
2012,01,21,08,10,13.80
2012,01,21,08,11,16.70
2012,01,21,08,12,15.90
2012,01,21,08,13,19.50
2012,01,21,08,14,21.30
2012,01,21,08,15,22.70
2012,01,21,08,16,18.30
2012,01,21,08,17,21.20
2012,01,21,08,18,15.90
2012,01,21,08,19,18.50
2012,01,21,08,20,15.00
2012,01,21,08,21,10.40
2012,01,21,08,22,12.50
2012,01,21,08,23,12.40
2012,01,21,08,24,16.30
2012,01,21,08,25,12.30
2012,01,21,08,26,15.60
2012,01,21,08,27,7.60
2012,01,21,08,28,14.20
2012,01,21,08,29,13.60
2012,01,21,08,30,14.90
2012,01,21,08,31,16.80
2012,01,21,08,32,15.70
2012,01,21,08,33,17.10
2012,01,21,08,34,13.00
2012,01,21,08,35,14.80
2012,01,21,08,36,14.30
2012,01,21,08,37,9.30
2012,01,21,08,38,9.70
2012,01,21,08,39,9.30
2012,01,21,08,40,12.40
2012,01,21,08,41,7.60
2012,01,21,08,42,8.70
2012,01,21,08,43,13.20
2012,01,21,08,44,17.80
2012,01,21,08,45,9.50
2012,01,21,08,46,10.10
2012,01,21,08,47,6.30
2012,01,21,08,48,6.90
2012,01,21,08,49,11.70
2012,01,21,08,50,12.80
2012,01,21,08,51,9.70
2012,01,21,08,52,10.50
2012,01,21,08,53,8.00
2012,01,21,08,54,10.50
2012,01,21,08,55,12.40
2012,01,21,08,56,11.10
2012,01,21,08,57,18.80
2012,01,21,08,58,11.00
2012,01,21,08,59,12.00
2012,01,21,09,00,9.70
2012,01,21,09,01,12.40
2012,01,21,09,02,12.30
2012,01,21,09,03,17.10
2012,01,21,09,04,21.10
2012,01,21,09,05,23.00
2012,01,21,09,06,22.10
2012,01,21,09,07,22.70
2012,01,21,09,08,24.70
2012,01,21,09,09,26.60
2012,01,21,09,10,16.90
2012,01,21,09,11,20.80
2012,01,21,09,12,19.00
2012,01,21,09,13,16.70
2012,01,21,09,14,19.70
2012,01,21,09,15,16.90
2012,01,21,09,16,23.60
2012,01,21,09,17,20.30
2012,01,21,09,18,14.80
2012,01,21,09,19,12.60
2012,01,21,09,20,10.10
2012,01,21,09,21,13.00
2012,01,21,09,22,15.40
2012,01,21,09,23,11.10
2012,01,21,09,24,8.00
2012,01,21,09,25,6.00
2012,01,21,09,26,5.70
2012,01,21,09,27,10.80
2012,01,21,09,28,11.10
2012,01,21,09,29,10.20
2012,01,21,09,30,9.10
2012,01,21,09,31,8.90
2012,01,21,09,32,8.40
2012,01,21,09,33,10.10
2012,01,21,09,34,9.90
2012,01,21,09,35,10.10
2012,01,21,09,36,6.50
2012,01,21,09,37,7.60
2012,01,21,09,38,8.60
2012,01,21,09,39,10.10
2012,01,21,09,40,6.50
2012,01,21,09,41,8.50
2012,01,21,09,42,8.50
2012,01,21,09,43,8.30
2012,01,21,09,44,8.40
2012,01,21,09,45,9.60
2012,01,21,09,46,7.60
2012,01,21,09,47,7.50
2012,01,21,09,48,10.20
2012,01,21,09,49,6.70
2012,01,21,09,50,7.60
2012,01,21,09,51,9.10
2012,01,21,09,52,7.30
2012,01,21,09,53,8.10
2012,01,21,09,54,8.90
2012,01,21,09,55,8.70
2012,01,21,09,56,10.40
2012,01,21,09,57,8.60
2012,01,21,09,58,6.00
2012,01,21,09,59,9.90
2012,01,21,10,00,13.30
2012,01,21,10,01,10.50
2012,01,21,10,02,10.70
2012,01,21,10,03,14.20
2012,01,21,10,04,17.30
2012,01,21,10,05,17.10
2012,01,21,10,06,11.80
2012,01,21,10,07,15.60
2012,01,21,10,08,16.20
2012,01,21,10,09,14.30
2012,01,21,10,10,18.20
2012,01,21,10,11,14.80
2012,01,21,10,12,16.90
2012,01,21,10,13,15.80
2012,01,21,10,14,13.00
2012,01,21,10,15,15.00
2012,01,21,10,16,10.90
2012,01,21,10,17,14.20
2012,01,21,10,18,8.90
2012,01,21,10,19,10.80
2012,01,21,10,20,13.00
2012,01,21,10,21,14.90
2012,01,21,10,22,18.70
2012,01,21,10,23,14.00
2012,01,21,10,24,17.60
2012,01,21,10,25,13.80
2012,01,21,10,26,12.50
2012,01,21,10,27,19.20
2012,01,21,10,28,25.80
2012,01,21,10,29,26.00
2012,01,21,10,30,15.70
2012,01,21,10,31,15.40
2012,01,21,10,32,14.20
2012,01,21,10,33,18.10
2012,01,21,10,34,15.40
2012,01,21,10,35,21.80
2012,01,21,10,36,18.30
2012,01,21,10,37,14.60
2012,01,21,10,38,9.80
2012,01,21,10,39,14.20
2012,01,21,10,40,13.00
2012,01,21,10,41,12.50
2012,01,21,10,42,14.30
2012,01,21,10,43,11.40
2012,01,21,10,44,12.40
2012,01,21,10,45,8.50
2012,01,21,10,46,10.00
2012,01,21,10,47,10.80
2012,01,21,10,48,13.20
2012,01,21,10,49,13.40
2012,01,21,10,50,10.60
2012,01,21,10,51,10.10
2012,01,21,10,52,11.30
2012,01,21,10,53,8.00
2012,01,21,10,54,7.60
2012,01,21,10,55,9.20
2012,01,21,10,56,9.60
2012,01,21,10,57,10.40
2012,01,21,10,58,11.80
2012,01,21,10,59,5.80
2012,01,21,11,00,6.10
2012,01,21,11,01,8.90
2012,01,21,11,02,9.20
2012,01,21,11,03,20.60
2012,01,21,11,04,15.20
2012,01,21,11,05,14.40
2012,01,21,11,06,20.50
2012,01,21,11,07,12.80
2012,01,21,11,08,20.90
2012,01,21,11,09,21.00
2012,01,21,11,10,14.30
2012,01,21,11,11,13.60
2012,01,21,11,12,8.00
2012,01,21,11,13,12.20
2012,01,21,11,14,10.90
2012,01,21,11,15,10.30
2012,01,21,11,16,11.50
2012,01,21,11,17,10.30
2012,01,21,11,18,12.90
2012,01,21,11,19,14.00
2012,01,21,11,20,11.60
2012,01,21,11,21,10.90
2012,01,21,11,22,7.00
2012,01,21,11,23,6.30
2012,01,21,11,24,10.60
2012,01,21,11,25,12.90
2012,01,21,11,26,13.20
2012,01,21,11,27,13.80
2012,01,21,11,28,15.10
2012,01,21,11,29,14.60
2012,01,21,11,30,10.10
2012,01,21,11,31,11.60
2012,01,21,11,32,10.70
2012,01,21,11,33,7.70
2012,01,21,11,34,10.50
2012,01,21,11,35,10.70
2012,01,21,11,36,10.60
2012,01,21,11,37,9.70
2012,01,21,11,38,13.90
2012,01,21,11,39,11.90
2012,01,21,11,40,14.70
2012,01,21,11,41,10.40
2012,01,21,11,42,12.10
2012,01,21,11,43,16.30
2012,01,21,11,44,16.20
2012,01,21,11,45,17.10
2012,01,21,11,46,17.50
2012,01,21,11,47,11.40
2012,01,21,11,48,9.80
2012,01,21,11,49,14.60
2012,01,21,11,50,10.00
2012,01,21,11,51,16.10
2012,01,21,11,52,15.70
2012,01,21,11,53,10.50
2012,01,21,11,54,22.70
2012,01,21,11,55,21.90
2012,01,21,11,56,21.60
2012,01,21,11,57,14.60
2012,01,21,11,58,10.90
2012,01,21,11,59,15.20
2012,01,21,12,00,14.20
2012,01,21,12,01,12.20
2012,01,21,12,02,16.80
2012,01,21,12,03,13.70
2012,01,21,12,04,10.50
2012,01,21,12,05,18.80
2012,01,21,12,06,15.90
2012,01,21,12,07,17.40
2012,01,21,12,08,7.50
2012,01,21,12,09,17.40
2012,01,21,12,10,20.40
2012,01,21,12,11,11.40
2012,01,21,12,12,11.10
2012,01,21,12,13,13.80
2012,01,21,12,14,11.10
2012,01,21,12,15,13.40
2012,01,21,12,16,15.90
2012,01,21,12,17,12.80
2012,01,21,12,18,9.90
2012,01,21,12,19,13.20
2012,01,21,12,20,11.30
2012,01,21,12,21,9.20
2012,01,21,12,22,17.30
2012,01,21,12,23,16.30
2012,01,21,12,24,13.80
2012,01,21,12,25,11.40
2012,01,21,12,26,12.80
2012,01,21,12,27,13.10
2012,01,21,12,28,11.80
2012,01,21,12,29,12.70
2012,01,21,12,30,14.40
2012,01,21,12,31,19.10
2012,01,21,12,32,17.90
2012,01,21,12,33,16.80
2012,01,21,12,34,14.80
2012,01,21,12,35,17.20
2012,01,21,12,36,15.30
2012,01,21,12,37,8.60
2012,01,21,12,38,10.70
2012,01,21,12,39,13.80
2012,01,21,12,40,18.50
2012,01,21,12,41,14.80
2012,01,21,12,42,16.90
2012,01,21,12,43,20.30
2012,01,21,12,44,19.20
2012,01,21,12,45,23.80
2012,01,21,12,46,16.40
2012,01,21,12,47,17.20
2012,01,21,12,48,26.90
2012,01,21,12,49,20.20
2012,01,21,12,50,18.50
2012,01,21,12,51,23.00
2012,01,21,12,52,17.90
2012,01,21,12,53,25.30
2012,01,21,12,54,27.90
2012,01,21,12,55,19.80
2012,01,21,12,56,14.60
2012,01,21,12,57,18.80
2012,01,21,12,58,24.40
2012,01,21,12,59,24.90
2012,01,21,13,00,24.60
2012,01,21,13,01,28.60
2012,01,21,13,02,18.80
2012,01,21,13,03,14.30
2012,01,21,13,04,19.60
2012,01,21,13,05,23.20
2012,01,21,13,06,19.20
2012,01,21,13,07,22.40
2012,01,21,13,08,19.80
2012,01,21,13,09,12.00
2012,01,21,13,10,16.40
2012,01,21,13,11,16.30
2012,01,21,13,12,27.40
2012,01,21,13,13,18.50
2012,01,21,13,14,14.50
2012,01,21,13,15,23.00
2012,01,21,13,16,20.60
2012,01,21,13,17,19.90
2012,01,21,13,18,23.80
2012,01,21,13,19,15.60
2012,01,21,13,20,22.90
2012,01,21,13,21,15.00
2012,01,21,13,22,20.80
2012,01,21,13,23,21.60
2012,01,21,13,24,21.30
2012,01,21,13,25,17.40
2012,01,21,13,26,25.30
2012,01,21,13,27,22.90
2012,01,21,13,28,25.30
2012,01,21,13,29,20.00
2012,01,21,13,30,26.20
2012,01,21,13,31,17.90
2012,01,21,13,32,15.10
2012,01,21,13,33,14.30
2012,01,21,13,34,12.20
2012,01,21,13,35,12.90
2012,01,21,13,36,10.10
2012,01,21,13,37,11.10
2012,01,21,13,38,20.30
2012,01,21,13,39,20.20
2012,01,21,13,40,18.00
2012,01,21,13,41,14.40
2012,01,21,13,42,12.70
2012,01,21,13,43,16.10
2012,01,21,13,44,15.10
2012,01,21,13,45,10.40
2012,01,21,13,46,18.60
2012,01,21,13,47,17.40
2012,01,21,13,48,10.30
2012,01,21,13,49,17.70
2012,01,21,13,50,14.50
2012,01,21,13,51,15.80
2012,01,21,13,52,16.60
2012,01,21,13,53,15.00
2012,01,21,13,54,14.70
2012,01,21,13,55,16.90
2012,01,21,13,56,11.00
2012,01,21,13,57,15.20
2012,01,21,13,58,20.80
2012,01,21,13,59,19.30
2012,01,21,14,00,17.50
2012,01,21,14,01,18.80
2012,01,21,14,02,18.30
2012,01,21,14,03,15.00
2012,01,21,14,04,12.40
2012,01,21,14,05,21.70
2012,01,21,14,06,16.00
2012,01,21,14,07,17.40
2012,01,21,14,08,25.60
2012,01,21,14,09,15.40
2012,01,21,14,10,14.20
2012,01,21,14,11,14.10
2012,01,21,14,12,19.80
2012,01,21,14,13,17.70
2012,01,21,14,14,20.10
2012,01,21,14,15,13.00
2012,01,21,14,16,12.60
2012,01,21,14,17,17.00
2012,01,21,14,18,21.00
2012,01,21,14,19,13.00
2012,01,21,14,20,18.80
2012,01,21,14,21,23.40
2012,01,21,14,22,17.30
2012,01,21,14,23,15.60
2012,01,21,14,24,15.20
2012,01,21,14,25,20.60
2012,01,21,14,26,18.60
2012,01,21,14,27,17.10
2012,01,21,14,28,15.00
2012,01,21,14,29,15.00
2012,01,21,14,30,16.60
2012,01,21,14,31,17.90
2012,01,21,14,32,22.50
2012,01,21,14,33,19.60
2012,01,21,14,34,14.60
2012,01,21,14,35,10.70
2012,01,21,14,36,11.80
2012,01,21,14,37,19.10
2012,01,21,14,38,13.90
2012,01,21,14,39,14.60
2012,01,21,14,40,16.80
2012,01,21,14,41,17.70
2012,01,21,14,42,16.80
2012,01,21,14,43,17.60
2012,01,21,14,44,19.80
2012,01,21,14,45,12.80
2012,01,21,14,46,19.60
2012,01,21,14,47,14.50
2012,01,21,14,48,16.40
2012,01,21,14,49,24.10
2012,01,21,14,50,13.00
2012,01,21,14,51,19.10
2012,01,21,14,52,22.10
2012,01,21,14,53,19.50
2012,01,21,14,54,14.40
2012,01,21,14,55,15.30
2012,01,21,14,56,19.30
2012,01,21,14,57,18.50
2012,01,21,14,58,19.40
2012,01,21,14,59,20.70
2012,01,21,15,00,13.40
2012,01,21,15,01,19.30
2012,01,21,15,02,17.70
2012,01,21,15,03,19.20
2012,01,21,15,04,21.90
2012,01,21,15,05,27.90
2012,01,21,15,06,17.10
2012,01,21,15,07,13.70
2012,01,21,15,08,18.50
2012,01,21,15,09,15.80
2012,01,21,15,10,19.90
2012,01,21,15,11,15.60
2012,01,21,15,12,19.80
2012,01,21,15,13,13.90
2012,01,21,15,14,23.20
2012,01,21,15,15,17.90
2012,01,21,15,16,17.20
2012,01,21,15,17,14.60
2012,01,21,15,18,21.60
2012,01,21,15,19,14.10
2012,01,21,15,20,16.30
2012,01,21,15,21,22.10
2012,01,21,15,22,21.80
2012,01,21,15,23,23.50
2012,01,21,15,24,21.30
2012,01,21,15,25,26.80
2012,01,21,15,26,23.30
2012,01,21,15,27,20.50
2012,01,21,15,28,13.00
2012,01,21,15,29,17.90
2012,01,21,15,30,19.60
2012,01,21,15,31,23.80
2012,01,21,15,32,15.20
2012,01,21,15,33,22.90
2012,01,21,15,34,29.50
2012,01,21,15,35,22.40
2012,01,21,15,36,18.20
2012,01,21,15,37,22.90
2012,01,21,15,38,24.50
2012,01,21,15,39,22.00
2012,01,21,15,40,21.10
2012,01,21,15,41,19.10
2012,01,21,15,42,23.30
2012,01,21,15,43,20.30
2012,01,21,15,44,17.00
2012,01,21,15,45,17.20
2012,01,21,15,46,18.30
2012,01,21,15,47,15.80
2012,01,21,15,48,21.70
2012,01,21,15,49,16.00
2012,01,21,15,50,19.10
2012,01,21,15,51,15.30
2012,01,21,15,52,15.70
2012,01,21,15,53,8.30
2012,01,21,15,54,16.30
2012,01,21,15,55,13.00
2012,01,21,15,56,10.10
2012,01,21,15,57,14.10
2012,01,21,15,58,13.30
2012,01,21,15,59,16.50
2012,01,21,16,00,17.90
2012,01,21,16,01,16.90
2012,01,21,16,02,16.30
2012,01,21,16,03,16.90
2012,01,21,16,04,13.70
2012,01,21,16,05,20.40
2012,01,21,16,06,15.50
2012,01,21,16,07,13.00
2012,01,21,16,08,10.30
2012,01,21,16,09,15.30
2012,01,21,16,10,13.50
2012,01,21,16,11,12.90
2012,01,21,16,12,6.80
2012,01,21,16,13,13.40
2012,01,21,16,14,15.20
2012,01,21,16,15,9.30
2012,01,21,16,16,10.10
2012,01,21,16,17,10.10
2012,01,21,16,18,13.00
2012,01,21,16,19,14.50
2012,01,21,16,20,13.60
2012,01,21,16,21,11.40
2012,01,21,16,22,13.50
2012,01,21,16,23,14.50
2012,01,21,16,24,18.90
2012,01,21,16,25,12.70
2012,01,21,16,26,20.40
2012,01,21,16,27,18.60
2012,01,21,16,28,12.60
2012,01,21,16,29,19.50
2012,01,21,16,30,12.70
2012,01,21,16,31,16.50
2012,01,21,16,32,17.20
2012,01,21,16,33,12.10
2012,01,21,16,34,15.50
2012,01,21,16,35,20.20
2012,01,21,16,36,18.50
2012,01,21,16,37,19.30
2012,01,21,16,38,16.30
2012,01,21,16,39,10.80
2012,01,21,16,40,10.90
2012,01,21,16,41,11.50
2012,01,21,16,42,12.70
2012,01,21,16,43,18.00
2012,01,21,16,44,10.90
2012,01,21,16,45,11.70
2012,01,21,16,46,11.90
2012,01,21,16,47,11.90
2012,01,21,16,48,16.30
2012,01,21,16,49,12.70
2012,01,21,16,50,16.40
2012,01,21,16,51,16.60
2012,01,21,16,52,15.00
2012,01,21,16,53,15.40
2012,01,21,16,54,15.60
2012,01,21,16,55,16.20
2012,01,21,16,56,15.50
2012,01,21,16,57,15.30
2012,01,21,16,58,18.00
2012,01,21,16,59,14.60
2012,01,21,17,00,13.10
2012,01,21,17,01,17.70
2012,01,21,17,02,16.80
2012,01,21,17,03,16.00
2012,01,21,17,04,13.40
2012,01,21,17,05,14.30
2012,01,21,17,06,11.20
2012,01,21,17,07,15.20
2012,01,21,17,08,12.40
2012,01,21,17,09,14.20
2012,01,21,17,10,18.10
2012,01,21,17,11,15.20
2012,01,21,17,12,16.70
2012,01,21,17,13,13.00
2012,01,21,17,14,16.80
2012,01,21,17,15,18.20
2012,01,21,17,16,18.90
2012,01,21,17,17,18.80
2012,01,21,17,18,11.70
2012,01,21,17,19,18.80
2012,01,21,17,20,17.80
2012,01,21,17,21,12.40
2012,01,21,17,22,18.30
2012,01,21,17,23,21.20
2012,01,21,17,24,17.40
2012,01,21,17,25,13.90
2012,01,21,17,26,13.10
2012,01,21,17,27,14.60
2012,01,21,17,28,12.30
2012,01,21,17,29,10.20
2012,01,21,17,30,11.30